Location: Bergnershof
(48.9468°N, 10.9431°E)
Time: 00:11:49
(UTC+00:00)

Cosmos 1844 Rocket - Pass Details

Date: 03 March 2021
Orbit: 826 x 843 km, 71.0° (Epoch: 13 April)

Event Time Altitude Azimuth Distance (km) Brightness Sun altitude
Rises 18:21:41 0° 331° (NNW) 3,377 6.3 -13.7°
Reaches altitude 10° 18:24:07 10° 332° (NNW) 2,439 5.6 -14.1°
Maximum altitude 18:29:44 88° 63° (ENE) 834 2.6 -15.0°
Drops below altitude 10° 18:35:18 10° 153° (SSE) 2,424 4.8 -15.9°
Enters shadow 18:36:01 - 153° (SSE) 2,696 5.0 -16.0°
